Year,Month,Day,Hour,Minute,Value (Times are PST for temperature in C)
2021,08,15,00,00,22.70
2021,08,15,00,01,22.60
2021,08,15,00,02,22.60
2021,08,15,00,03,22.60
2021,08,15,00,04,22.50
2021,08,15,00,05,22.50
2021,08,15,00,06,22.50
2021,08,15,00,07,22.40
2021,08,15,00,08,22.40
2021,08,15,00,09,22.40
2021,08,15,00,10,22.30
2021,08,15,00,11,22.30
2021,08,15,00,12,22.30
2021,08,15,00,13,22.30
2021,08,15,00,14,22.30
2021,08,15,00,15,22.30
2021,08,15,00,16,22.20
2021,08,15,00,17,22.20
2021,08,15,00,18,22.10
2021,08,15,00,19,22.00
2021,08,15,00,20,22.00
2021,08,15,00,21,21.90
2021,08,15,00,22,21.80
2021,08,15,00,23,21.80
2021,08,15,00,24,21.70
2021,08,15,00,25,21.70
2021,08,15,00,26,21.60
2021,08,15,00,27,21.60
2021,08,15,00,28,21.60
2021,08,15,00,29,21.40
2021,08,15,00,30,21.40
2021,08,15,00,31,21.30
2021,08,15,00,32,21.30
2021,08,15,00,33,21.20
2021,08,15,00,34,21.20
2021,08,15,00,35,21.10
2021,08,15,00,36,21.00
2021,08,15,00,37,21.00
2021,08,15,00,38,20.90
2021,08,15,00,39,20.80
2021,08,15,00,40,20.70
2021,08,15,00,41,20.70
2021,08,15,00,42,20.60
2021,08,15,00,43,20.50
2021,08,15,00,44,20.50
2021,08,15,00,45,20.40
2021,08,15,00,46,20.30
2021,08,15,00,47,20.30
2021,08,15,00,48,20.20
2021,08,15,00,49,20.20
2021,08,15,00,50,20.10
2021,08,15,00,51,20.00
2021,08,15,00,52,19.90
2021,08,15,00,53,19.90
2021,08,15,00,54,19.80
2021,08,15,00,55,19.80
2021,08,15,00,56,19.70
2021,08,15,00,57,19.70
2021,08,15,00,58,19.60
2021,08,15,00,59,19.50
2021,08,15,01,00,19.40
2021,08,15,01,01,19.40
2021,08,15,01,02,19.30
2021,08,15,01,03,19.30
2021,08,15,01,04,19.20
2021,08,15,01,05,19.10
2021,08,15,01,06,19.10
2021,08,15,01,07,19.10
2021,08,15,01,08,19.10
2021,08,15,01,09,19.00
2021,08,15,01,10,18.90
2021,08,15,01,11,18.90
2021,08,15,01,12,18.90
2021,08,15,01,13,18.80
2021,08,15,01,14,18.70
2021,08,15,01,15,18.70
2021,08,15,01,16,18.60
2021,08,15,01,17,18.60
2021,08,15,01,18,18.50
2021,08,15,01,19,18.50
2021,08,15,01,20,18.40
2021,08,15,01,21,18.40
2021,08,15,01,22,18.30
2021,08,15,01,23,18.30
2021,08,15,01,24,18.20
2021,08,15,01,25,18.20
2021,08,15,01,26,18.20
2021,08,15,01,27,18.10
2021,08,15,01,28,18.10
2021,08,15,01,29,18.00
2021,08,15,01,30,17.90
2021,08,15,01,31,17.90
2021,08,15,01,32,17.90
2021,08,15,01,33,17.90
2021,08,15,01,34,17.90
2021,08,15,01,35,17.80
2021,08,15,01,36,17.80
2021,08,15,01,37,17.70
2021,08,15,01,38,17.70
2021,08,15,01,39,17.70
2021,08,15,01,40,17.60
2021,08,15,01,41,17.60
2021,08,15,01,42,17.60
2021,08,15,01,43,17.50
2021,08,15,01,44,17.50
2021,08,15,01,45,17.40
2021,08,15,01,46,17.40
2021,08,15,01,47,17.40
2021,08,15,01,48,17.30
2021,08,15,01,49,17.30
2021,08,15,01,50,17.30
2021,08,15,01,51,17.30
2021,08,15,01,52,17.30
2021,08,15,01,53,17.20
2021,08,15,01,54,17.20
2021,08,15,01,55,17.20
2021,08,15,01,56,17.20
2021,08,15,01,57,17.10
2021,08,15,01,58,17.10
2021,08,15,01,59,17.10
2021,08,15,02,00,17.10
2021,08,15,02,01,17.10
2021,08,15,02,02,17.00
2021,08,15,02,03,17.00
2021,08,15,02,04,17.00
2021,08,15,02,05,17.00
2021,08,15,02,06,17.00
2021,08,15,02,07,16.90
2021,08,15,02,08,16.90
2021,08,15,02,09,16.90
2021,08,15,02,10,16.90
2021,08,15,02,11,16.80
2021,08,15,02,12,16.80
2021,08,15,02,13,16.80
2021,08,15,02,14,16.80
2021,08,15,02,15,16.80
2021,08,15,02,16,16.80
2021,08,15,02,17,16.80
2021,08,15,02,18,16.80
2021,08,15,02,19,16.70
2021,08,15,02,20,16.70
2021,08,15,02,21,16.70
2021,08,15,02,22,16.70
2021,08,15,02,23,16.70
2021,08,15,02,24,16.70
2021,08,15,02,25,16.60
2021,08,15,02,26,16.60
2021,08,15,02,27,16.60
2021,08,15,02,28,16.50
2021,08,15,02,29,16.40
2021,08,15,02,30,16.40
2021,08,15,02,31,16.40
2021,08,15,02,32,16.40
2021,08,15,02,33,16.40
2021,08,15,02,34,16.30
2021,08,15,02,35,16.30
2021,08,15,02,36,16.30
2021,08,15,02,37,16.30
2021,08,15,02,38,16.20
2021,08,15,02,39,16.20
2021,08,15,02,40,16.20
2021,08,15,02,41,16.10
2021,08,15,02,42,16.10
2021,08,15,02,43,16.10
2021,08,15,02,44,16.10
2021,08,15,02,45,16.10
2021,08,15,02,46,16.10
2021,08,15,02,47,16.10
2021,08,15,02,48,16.10
2021,08,15,02,49,16.10
2021,08,15,02,50,16.00
2021,08,15,02,51,15.90
2021,08,15,02,52,15.90
2021,08,15,02,53,15.90
2021,08,15,02,54,15.90
2021,08,15,02,55,15.90
2021,08,15,02,56,15.90
2021,08,15,02,57,15.80
2021,08,15,02,58,15.80
2021,08,15,02,59,15.80
2021,08,15,03,00,15.80
2021,08,15,03,01,15.80
2021,08,15,03,02,15.80
2021,08,15,03,03,15.80
2021,08,15,03,04,15.70
2021,08,15,03,05,15.70
2021,08,15,03,06,15.70
2021,08,15,03,07,15.70
2021,08,15,03,08,15.70
2021,08,15,03,09,15.70
2021,08,15,03,10,15.70
2021,08,15,03,11,15.70
2021,08,15,03,12,15.70
2021,08,15,03,13,15.70
2021,08,15,03,14,15.60
2021,08,15,03,15,15.60
2021,08,15,03,16,15.60
2021,08,15,03,17,15.60
2021,08,15,03,18,15.60
2021,08,15,03,19,15.60
2021,08,15,03,20,15.60
2021,08,15,03,21,15.60
2021,08,15,03,22,15.50
2021,08,15,03,23,15.50
2021,08,15,03,24,15.50
2021,08,15,03,25,15.50
2021,08,15,03,26,15.50
2021,08,15,03,27,15.50
2021,08,15,03,28,15.50
2021,08,15,03,29,15.50
2021,08,15,03,30,15.50
2021,08,15,03,31,15.50
2021,08,15,03,32,15.40
2021,08,15,03,33,15.40
2021,08,15,03,34,15.40
2021,08,15,03,35,15.30
2021,08,15,03,36,15.30
2021,08,15,03,37,15.30
2021,08,15,03,38,15.30
2021,08,15,03,39,15.30
2021,08,15,03,40,15.30
2021,08,15,03,41,15.30
2021,08,15,03,42,15.30
2021,08,15,03,43,15.30
2021,08,15,03,44,15.30
2021,08,15,03,45,15.30
2021,08,15,03,46,15.30
2021,08,15,03,47,15.30
2021,08,15,03,48,15.30
2021,08,15,03,49,15.30
2021,08,15,03,50,15.30
2021,08,15,03,51,15.20
2021,08,15,03,52,15.20
2021,08,15,03,53,15.20
2021,08,15,03,54,15.20
2021,08,15,03,55,15.20
2021,08,15,03,56,15.20
2021,08,15,03,57,15.20
2021,08,15,03,58,15.10
2021,08,15,03,59,15.10
2021,08,15,04,00,15.10
2021,08,15,04,01,15.10
2021,08,15,04,02,15.10
2021,08,15,04,03,15.00
2021,08,15,04,04,15.00
2021,08,15,04,05,15.00
2021,08,15,04,06,15.00
2021,08,15,04,07,14.90
2021,08,15,04,08,14.90
2021,08,15,04,09,14.90
2021,08,15,04,10,14.90
2021,08,15,04,11,14.90
2021,08,15,04,12,14.90
2021,08,15,04,13,14.90
2021,08,15,04,14,14.90
2021,08,15,04,15,14.90
2021,08,15,04,16,14.90
2021,08,15,04,17,14.90
2021,08,15,04,18,14.90
2021,08,15,04,19,14.80
2021,08,15,04,20,14.80
2021,08,15,04,21,14.80
2021,08,15,04,22,14.80
2021,08,15,04,23,14.80
2021,08,15,04,24,14.80
2021,08,15,04,25,14.80
2021,08,15,04,26,14.70
2021,08,15,04,27,14.70
2021,08,15,04,28,14.70
2021,08,15,04,29,14.70
2021,08,15,04,30,14.70
2021,08,15,04,31,14.70
2021,08,15,04,32,14.70
2021,08,15,04,33,14.70
2021,08,15,04,34,14.80
2021,08,15,04,35,14.80
2021,08,15,04,36,14.80
2021,08,15,04,37,14.80
2021,08,15,04,38,14.80
2021,08,15,04,39,14.80
2021,08,15,04,40,14.80
2021,08,15,04,41,14.80
2021,08,15,04,42,14.80
2021,08,15,04,43,14.80
2021,08,15,04,44,14.80
2021,08,15,04,45,14.80
2021,08,15,04,46,14.80
2021,08,15,04,47,14.80
2021,08,15,04,48,14.80
2021,08,15,04,49,14.80
2021,08,15,04,50,14.80
2021,08,15,04,51,14.80
2021,08,15,04,52,14.80
2021,08,15,04,53,14.80
2021,08,15,04,54,14.80
2021,08,15,04,55,14.80
2021,08,15,04,56,14.80
2021,08,15,04,57,14.70
2021,08,15,04,58,14.70
2021,08,15,04,59,14.70
2021,08,15,05,00,14.70
2021,08,15,05,01,14.70
2021,08,15,05,02,14.70
2021,08,15,05,03,14.60
2021,08,15,05,04,14.60
2021,08,15,05,05,14.60
2021,08,15,05,06,14.60
2021,08,15,05,07,14.60
2021,08,15,05,08,14.60
2021,08,15,05,09,14.60
2021,08,15,05,10,14.60
2021,08,15,05,11,14.60
2021,08,15,05,12,14.60
2021,08,15,05,13,14.60
2021,08,15,05,14,14.60
2021,08,15,05,15,14.60
2021,08,15,05,16,14.60
2021,08,15,05,17,14.60
2021,08,15,05,18,14.60
2021,08,15,05,19,14.50
2021,08,15,05,20,14.50
2021,08,15,05,21,14.50
2021,08,15,05,22,14.50
2021,08,15,05,23,14.50
2021,08,15,05,24,14.50
2021,08,15,05,25,14.40
2021,08,15,05,26,14.40
2021,08,15,05,27,14.30
2021,08,15,05,28,14.30
2021,08,15,05,29,14.30
2021,08,15,05,30,14.20
2021,08,15,05,31,14.20
2021,08,15,05,32,14.20
2021,08,15,05,33,14.20
2021,08,15,05,34,14.20
2021,08,15,05,35,14.20
2021,08,15,05,36,14.20
2021,08,15,05,37,14.20
2021,08,15,05,38,14.20
2021,08,15,05,39,14.10
2021,08,15,05,40,14.10
2021,08,15,05,41,14.10
2021,08,15,05,42,14.10
2021,08,15,05,43,14.10
2021,08,15,05,44,14.10
2021,08,15,05,45,14.10
2021,08,15,05,46,14.00
2021,08,15,05,47,14.00
2021,08,15,05,48,14.00
2021,08,15,05,49,14.00
2021,08,15,05,50,14.00
2021,08,15,05,51,14.00
2021,08,15,05,52,14.00
2021,08,15,05,53,14.00
2021,08,15,05,54,13.90
2021,08,15,05,55,14.00
2021,08,15,05,56,14.00
2021,08,15,05,57,14.00
2021,08,15,05,58,14.10
2021,08,15,05,59,14.10
2021,08,15,06,00,14.10
2021,08,15,06,01,14.10
2021,08,15,06,02,14.10
2021,08,15,06,03,14.10
2021,08,15,06,04,14.10
2021,08,15,06,05,14.10
2021,08,15,06,06,14.10
2021,08,15,06,07,14.10
2021,08,15,06,08,14.10
2021,08,15,06,09,14.10
2021,08,15,06,10,14.10
2021,08,15,06,11,14.00
2021,08,15,06,12,14.00
2021,08,15,06,13,14.00
2021,08,15,06,14,14.00
2021,08,15,06,15,14.10
2021,08,15,06,16,14.10
2021,08,15,06,17,14.10
2021,08,15,06,18,14.10
2021,08,15,06,19,14.10
2021,08,15,06,20,14.10
2021,08,15,06,21,14.00
2021,08,15,06,22,14.00
2021,08,15,06,23,14.00
2021,08,15,06,24,14.00
2021,08,15,06,25,14.00
2021,08,15,06,26,13.90
2021,08,15,06,27,13.90
2021,08,15,06,28,13.90
2021,08,15,06,29,13.80
2021,08,15,06,30,13.80
2021,08,15,06,31,13.80
2021,08,15,06,32,13.80
2021,08,15,06,33,13.80
2021,08,15,06,34,13.70
2021,08,15,06,35,13.70
2021,08,15,06,36,13.70
2021,08,15,06,37,13.70
2021,08,15,06,38,13.70
2021,08,15,06,39,13.70
2021,08,15,06,40,13.70
2021,08,15,06,41,13.70
2021,08,15,06,42,13.70
2021,08,15,06,43,13.70
2021,08,15,06,44,13.70
2021,08,15,06,45,13.70
2021,08,15,06,46,13.70
2021,08,15,06,47,13.70
2021,08,15,06,48,13.70
2021,08,15,06,49,13.70
2021,08,15,06,50,13.70
2021,08,15,06,51,13.70
2021,08,15,06,52,13.70
2021,08,15,06,53,13.70
2021,08,15,06,54,13.80
2021,08,15,06,55,13.80
2021,08,15,06,56,13.80
2021,08,15,06,57,13.90
2021,08,15,06,58,13.90
2021,08,15,06,59,14.00
2021,08,15,07,00,14.00
2021,08,15,07,01,14.10
2021,08,15,07,02,14.20
2021,08,15,07,03,14.20
2021,08,15,07,04,14.20
2021,08,15,07,05,14.20
2021,08,15,07,06,14.20
2021,08,15,07,07,14.20
2021,08,15,07,08,14.30
2021,08,15,07,09,14.30
2021,08,15,07,10,14.30
2021,08,15,07,11,14.40
2021,08,15,07,12,14.40
2021,08,15,07,13,14.50
2021,08,15,07,14,14.50
2021,08,15,07,15,14.60
2021,08,15,07,16,14.70
2021,08,15,07,17,14.70
2021,08,15,07,18,14.80
2021,08,15,07,19,14.80
2021,08,15,07,20,14.90
2021,08,15,07,21,15.00
2021,08,15,07,22,15.10
2021,08,15,07,23,15.10
2021,08,15,07,24,15.20
2021,08,15,07,25,15.20
2021,08,15,07,26,15.20
2021,08,15,07,27,15.20
2021,08,15,07,28,15.30
2021,08,15,07,29,15.30
2021,08,15,07,30,15.30
2021,08,15,07,31,15.30
2021,08,15,07,32,15.30
2021,08,15,07,33,15.30
2021,08,15,07,34,15.40
2021,08,15,07,35,15.50
2021,08,15,07,36,15.50
2021,08,15,07,37,15.60
2021,08,15,07,38,15.70
2021,08,15,07,39,15.70
2021,08,15,07,40,15.80
2021,08,15,07,41,15.80
2021,08,15,07,42,15.80
2021,08,15,07,43,15.80
2021,08,15,07,44,15.80
2021,08,15,07,45,15.80
2021,08,15,07,46,15.80
2021,08,15,07,47,15.90
2021,08,15,07,48,15.90
2021,08,15,07,49,15.90
2021,08,15,07,50,16.00
2021,08,15,07,51,16.10
2021,08,15,07,52,16.10
2021,08,15,07,53,16.10
2021,08,15,07,54,16.10
2021,08,15,07,55,16.10
2021,08,15,07,56,16.10
2021,08,15,07,57,16.20
2021,08,15,07,58,16.20
2021,08,15,07,59,16.30
2021,08,15,08,00,16.40
2021,08,15,08,01,16.40
2021,08,15,08,02,16.40
2021,08,15,08,03,16.40
2021,08,15,08,04,16.50
2021,08,15,08,05,16.60
2021,08,15,08,06,16.60
2021,08,15,08,07,16.60
2021,08,15,08,08,16.70
2021,08,15,08,09,16.70
2021,08,15,08,10,16.70
2021,08,15,08,11,16.80
2021,08,15,08,12,16.90
2021,08,15,08,13,16.90
2021,08,15,08,14,17.00
2021,08,15,08,15,17.10
2021,08,15,08,16,17.10
2021,08,15,08,17,17.30
2021,08,15,08,18,17.40
2021,08,15,08,19,17.50
2021,08,15,08,20,17.60
2021,08,15,08,21,17.80
2021,08,15,08,22,17.90
2021,08,15,08,23,18.10
2021,08,15,08,24,18.30
2021,08,15,08,25,18.40
2021,08,15,08,26,18.50
2021,08,15,08,27,18.60
2021,08,15,08,28,18.80
2021,08,15,08,29,18.90
2021,08,15,08,30,19.00
2021,08,15,08,31,19.10
2021,08,15,08,32,19.20
2021,08,15,08,33,19.30
2021,08,15,08,34,19.30
2021,08,15,08,35,19.40
2021,08,15,08,36,19.50
2021,08,15,08,37,19.60
2021,08,15,08,38,19.70
2021,08,15,08,39,19.70
2021,08,15,08,40,19.80
2021,08,15,08,41,19.90
2021,08,15,08,42,19.90
2021,08,15,08,43,20.00
2021,08,15,08,44,20.10
2021,08,15,08,45,20.20
2021,08,15,08,46,20.20
2021,08,15,08,47,20.20
2021,08,15,08,48,20.20
2021,08,15,08,49,20.20
2021,08,15,08,50,20.30
2021,08,15,08,51,20.30
2021,08,15,08,52,20.40
2021,08,15,08,53,20.40
2021,08,15,08,54,20.40
2021,08,15,08,55,20.50
2021,08,15,08,56,20.50
2021,08,15,08,57,20.60
2021,08,15,08,58,20.70
2021,08,15,08,59,20.70
2021,08,15,09,00,20.70
2021,08,15,09,01,20.80
2021,08,15,09,02,20.80
2021,08,15,09,03,20.80
2021,08,15,09,04,20.90
2021,08,15,09,05,21.00
2021,08,15,09,06,21.00
2021,08,15,09,07,21.10
2021,08,15,09,08,21.30
2021,08,15,09,09,21.40
2021,08,15,09,10,21.60
2021,08,15,09,11,21.70
2021,08,15,09,12,21.80
2021,08,15,09,13,22.00
2021,08,15,09,14,22.10
2021,08,15,09,15,22.20
2021,08,15,09,16,22.30
2021,08,15,09,17,22.30
2021,08,15,09,18,22.40
2021,08,15,09,19,22.40
2021,08,15,09,20,22.50
2021,08,15,09,21,22.40
2021,08,15,09,22,22.20
2021,08,15,09,23,22.10
2021,08,15,09,24,21.90
2021,08,15,09,25,21.70
2021,08,15,09,26,21.60
2021,08,15,09,27,21.50
2021,08,15,09,28,21.30
2021,08,15,09,29,21.30
2021,08,15,09,30,21.20
2021,08,15,09,31,21.00
2021,08,15,09,32,20.90
2021,08,15,09,33,20.80
2021,08,15,09,34,20.80
2021,08,15,09,35,20.70
2021,08,15,09,36,20.80
2021,08,15,09,37,20.80
2021,08,15,09,38,20.80
2021,08,15,09,39,20.80
2021,08,15,09,40,20.80
2021,08,15,09,41,20.80
2021,08,15,09,42,20.70
2021,08,15,09,43,20.70
2021,08,15,09,44,20.60
2021,08,15,09,45,20.60
2021,08,15,09,46,20.50
2021,08,15,09,47,20.60
2021,08,15,09,48,20.70
2021,08,15,09,49,20.80
2021,08,15,09,50,20.80
2021,08,15,09,51,21.00
2021,08,15,09,52,21.00
2021,08,15,09,53,21.20
2021,08,15,09,54,21.30
2021,08,15,09,55,21.30
2021,08,15,09,56,21.40
2021,08,15,09,57,21.40
2021,08,15,09,58,21.40
2021,08,15,09,59,21.40
2021,08,15,10,00,21.40
2021,08,15,10,01,21.40
2021,08,15,10,02,21.50
2021,08,15,10,03,21.60
2021,08,15,10,04,21.60
2021,08,15,10,05,21.60
2021,08,15,10,06,21.60
2021,08,15,10,07,21.70
2021,08,15,10,08,21.80
2021,08,15,10,09,21.90
2021,08,15,10,10,22.10
2021,08,15,10,11,22.20
2021,08,15,10,12,22.30
2021,08,15,10,13,22.40
2021,08,15,10,14,22.60
2021,08,15,10,15,22.70
2021,08,15,10,16,22.90
2021,08,15,10,17,23.00
2021,08,15,10,18,23.20
2021,08,15,10,19,23.30
2021,08,15,10,20,23.40
2021,08,15,10,21,23.50
2021,08,15,10,22,23.70
2021,08,15,10,23,23.80
2021,08,15,10,24,24.00
2021,08,15,10,25,24.20
2021,08,15,10,26,24.20
2021,08,15,10,27,24.20
2021,08,15,10,28,24.20
2021,08,15,10,29,24.10
2021,08,15,10,30,24.10
2021,08,15,10,31,24.10
2021,08,15,10,32,24.10
2021,08,15,10,33,24.10
2021,08,15,10,34,24.10
2021,08,15,10,35,24.10
2021,08,15,10,36,24.10
2021,08,15,10,37,24.10
2021,08,15,10,38,24.10
2021,08,15,10,39,24.10
2021,08,15,10,40,24.10
2021,08,15,10,41,24.10
2021,08,15,10,42,24.10
2021,08,15,10,43,24.10
2021,08,15,10,44,24.00
2021,08,15,10,45,23.90
2021,08,15,10,46,23.80
2021,08,15,10,47,23.90
2021,08,15,10,48,24.00
2021,08,15,10,49,24.10
2021,08,15,10,50,24.10
2021,08,15,10,51,24.10
2021,08,15,10,52,24.10
2021,08,15,10,53,24.10
2021,08,15,10,54,24.00
2021,08,15,10,55,23.90
2021,08,15,10,56,23.80
2021,08,15,10,57,23.70
2021,08,15,10,58,23.70
2021,08,15,10,59,23.80
2021,08,15,11,00,23.90
2021,08,15,11,01,23.90
2021,08,15,11,02,24.10
2021,08,15,11,03,24.10
2021,08,15,11,04,24.10
2021,08,15,11,05,24.10
2021,08,15,11,06,24.20
2021,08,15,11,07,24.20
2021,08,15,11,08,24.30
2021,08,15,11,09,24.30
2021,08,15,11,10,24.40
2021,08,15,11,11,24.40
2021,08,15,11,12,24.40
2021,08,15,11,13,24.40
2021,08,15,11,14,24.50
2021,08,15,11,15,24.50
2021,08,15,11,16,24.40
2021,08,15,11,17,24.40
2021,08,15,11,18,24.40
2021,08,15,11,19,24.30
2021,08,15,11,20,24.30
2021,08,15,11,21,24.30
2021,08,15,11,22,24.40
2021,08,15,11,23,24.60
2021,08,15,11,24,24.70
2021,08,15,11,25,24.70
2021,08,15,11,26,24.70
2021,08,15,11,27,24.70
2021,08,15,11,28,24.80
2021,08,15,11,29,24.90
2021,08,15,11,30,24.90
2021,08,15,11,31,24.90
2021,08,15,11,32,24.90
2021,08,15,11,33,24.70
2021,08,15,11,34,24.50
2021,08,15,11,35,24.50
2021,08,15,11,36,24.50
2021,08,15,11,37,24.40
2021,08,15,11,38,24.40
2021,08,15,11,39,24.30
2021,08,15,11,40,24.20
2021,08,15,11,41,24.20
2021,08,15,11,42,24.20
2021,08,15,11,43,24.10
2021,08,15,11,44,24.10
2021,08,15,11,45,24.20
2021,08,15,11,46,24.20
2021,08,15,11,47,24.30
2021,08,15,11,48,24.40
2021,08,15,11,49,24.40
2021,08,15,11,50,24.30
2021,08,15,11,51,24.30
2021,08,15,11,52,24.30
2021,08,15,11,53,24.30
2021,08,15,11,54,24.30
2021,08,15,11,55,24.20
2021,08,15,11,56,24.30
2021,08,15,11,57,24.30
2021,08,15,11,58,24.30
2021,08,15,11,59,24.30
2021,08,15,12,00,24.30
2021,08,15,12,01,24.30
2021,08,15,12,02,24.30
2021,08,15,12,03,24.30
2021,08,15,12,04,24.20
2021,08,15,12,05,24.20
2021,08,15,12,06,24.30
2021,08,15,12,07,24.30
2021,08,15,12,08,24.00
2021,08,15,12,09,23.70
2021,08,15,12,10,23.50
2021,08,15,12,11,23.30
2021,08,15,12,12,23.00
2021,08,15,12,13,22.90
2021,08,15,12,14,22.90
2021,08,15,12,15,22.90
2021,08,15,12,16,22.80
2021,08,15,12,17,22.70
2021,08,15,12,18,22.30
2021,08,15,12,19,22.00
2021,08,15,12,20,21.80
2021,08,15,12,21,21.70
2021,08,15,12,22,21.60
2021,08,15,12,23,21.60
2021,08,15,12,24,21.60
2021,08,15,12,25,21.70
2021,08,15,12,26,21.80
2021,08,15,12,27,21.80
2021,08,15,12,28,21.70
2021,08,15,12,29,21.70
2021,08,15,12,30,21.70
2021,08,15,12,31,21.60
2021,08,15,12,32,21.60
2021,08,15,12,33,21.70
2021,08,15,12,34,21.80
2021,08,15,12,35,21.80
2021,08,15,12,36,21.80
2021,08,15,12,37,21.60
2021,08,15,12,38,21.50
2021,08,15,12,39,21.40
2021,08,15,12,40,21.30
2021,08,15,12,41,21.00
2021,08,15,12,42,20.80
2021,08,15,12,43,20.40
2021,08,15,12,44,20.10
2021,08,15,12,45,19.90
2021,08,15,12,46,19.90
2021,08,15,12,47,20.10
2021,08,15,12,48,20.20
2021,08,15,12,49,20.20
2021,08,15,12,50,20.10
2021,08,15,12,51,19.90
2021,08,15,12,52,19.90
2021,08,15,12,53,19.80
2021,08,15,12,54,19.80
2021,08,15,12,55,19.80
2021,08,15,12,56,19.90
2021,08,15,12,57,20.00
2021,08,15,12,58,20.30
2021,08,15,12,59,20.70
2021,08,15,13,00,21.10
2021,08,15,13,01,21.30
2021,08,15,13,02,21.60
2021,08,15,13,03,22.10
2021,08,15,13,04,22.60
2021,08,15,13,05,22.80
2021,08,15,13,06,22.90
2021,08,15,13,07,23.10
2021,08,15,13,08,23.50
2021,08,15,13,09,23.80
2021,08,15,13,10,24.10
2021,08,15,13,11,24.30
2021,08,15,13,12,24.20
2021,08,15,13,13,24.30
2021,08,15,13,14,24.40
2021,08,15,13,15,24.50
2021,08,15,13,16,24.60
2021,08,15,13,17,24.60
2021,08,15,13,18,24.60
2021,08,15,13,19,24.70
2021,08,15,13,20,24.80
2021,08,15,13,21,24.90
2021,08,15,13,22,25.00
2021,08,15,13,23,25.20
2021,08,15,13,24,25.20
2021,08,15,13,25,25.20
2021,08,15,13,26,25.30
2021,08,15,13,27,25.30
2021,08,15,13,28,25.20
2021,08,15,13,29,25.20
2021,08,15,13,30,25.30
2021,08,15,13,31,25.40
2021,08,15,13,32,25.40
2021,08,15,13,33,25.50
2021,08,15,13,34,25.60
2021,08,15,13,35,25.70
2021,08,15,13,36,25.80
2021,08,15,13,37,25.90
2021,08,15,13,38,25.90
2021,08,15,13,39,25.80
2021,08,15,13,40,25.80
2021,08,15,13,41,25.70
2021,08,15,13,42,25.60
2021,08,15,13,43,25.60
2021,08,15,13,44,25.60
2021,08,15,13,45,25.60
2021,08,15,13,46,25.60
2021,08,15,13,47,25.60
2021,08,15,13,48,25.60
2021,08,15,13,49,25.60
2021,08,15,13,50,25.60
2021,08,15,13,51,25.70
2021,08,15,13,52,25.80
2021,08,15,13,53,25.80
2021,08,15,13,54,25.90
2021,08,15,13,55,25.90
2021,08,15,13,56,26.00
2021,08,15,13,57,26.10
2021,08,15,13,58,26.10
2021,08,15,13,59,26.20
2021,08,15,14,00,26.20
2021,08,15,14,01,26.20
2021,08,15,14,02,26.30
2021,08,15,14,03,26.30
2021,08,15,14,04,26.40
2021,08,15,14,05,26.30
2021,08,15,14,06,26.30
2021,08,15,14,07,26.30
2021,08,15,14,08,26.30
2021,08,15,14,09,26.40
2021,08,15,14,10,26.50
2021,08,15,14,11,26.60
2021,08,15,14,12,26.60
2021,08,15,14,13,26.70
2021,08,15,14,14,26.70
2021,08,15,14,15,26.70
2021,08,15,14,16,26.70
2021,08,15,14,17,26.70
2021,08,15,14,18,26.70
2021,08,15,14,19,26.80
2021,08,15,14,20,26.80
2021,08,15,14,21,26.90
2021,08,15,14,22,26.90
2021,08,15,14,23,27.00
2021,08,15,14,24,26.90
2021,08,15,14,25,26.90
2021,08,15,14,26,26.90
2021,08,15,14,27,26.80
2021,08,15,14,28,26.80
2021,08,15,14,29,26.80
2021,08,15,14,30,26.80
2021,08,15,14,31,26.80
2021,08,15,14,32,26.80
2021,08,15,14,33,26.80
2021,08,15,14,34,26.80
2021,08,15,14,35,26.80
2021,08,15,14,36,26.80
2021,08,15,14,37,26.90
2021,08,15,14,38,26.90
2021,08,15,14,39,26.90
2021,08,15,14,40,27.00
2021,08,15,14,41,27.10
2021,08,15,14,42,27.10
2021,08,15,14,43,27.10
2021,08,15,14,44,27.10
2021,08,15,14,45,27.10
2021,08,15,14,46,27.10
2021,08,15,14,47,27.10
2021,08,15,14,48,27.10
2021,08,15,14,49,27.00
2021,08,15,14,50,26.90
2021,08,15,14,51,26.90
2021,08,15,14,52,26.90
2021,08,15,14,53,26.90
2021,08,15,14,54,26.90
2021,08,15,14,55,26.90
2021,08,15,14,56,27.00
2021,08,15,14,57,27.10
2021,08,15,14,58,27.10
2021,08,15,14,59,27.20
2021,08,15,15,00,27.20
2021,08,15,15,01,27.10
2021,08,15,15,02,27.10
2021,08,15,15,03,27.20
2021,08,15,15,04,27.20
2021,08,15,15,05,27.30
2021,08,15,15,06,27.30
2021,08,15,15,07,27.30
2021,08,15,15,08,27.30
2021,08,15,15,09,27.30
2021,08,15,15,10,27.30
2021,08,15,15,11,27.50
2021,08,15,15,12,27.60
2021,08,15,15,13,27.80
2021,08,15,15,14,27.90
2021,08,15,15,15,28.10
2021,08,15,15,16,28.10
2021,08,15,15,17,28.20
2021,08,15,15,18,28.20
2021,08,15,15,19,28.20
2021,08,15,15,20,28.20
2021,08,15,15,21,28.20
2021,08,15,15,22,28.20
2021,08,15,15,23,28.30
2021,08,15,15,24,28.30
2021,08,15,15,25,28.40
2021,08,15,15,26,28.40
2021,08,15,15,27,28.30
2021,08,15,15,28,28.30
2021,08,15,15,29,28.40
2021,08,15,15,30,28.30
2021,08,15,15,31,28.30
2021,08,15,15,32,28.30
2021,08,15,15,33,28.20
2021,08,15,15,34,28.20
2021,08,15,15,35,28.10
2021,08,15,15,36,28.10
2021,08,15,15,37,28.10
2021,08,15,15,38,28.10
2021,08,15,15,39,28.10
2021,08,15,15,40,28.00
2021,08,15,15,41,28.10
2021,08,15,15,42,28.20
2021,08,15,15,43,28.20
2021,08,15,15,44,28.20
2021,08,15,15,45,28.10
2021,08,15,15,46,28.00
2021,08,15,15,47,28.00
2021,08,15,15,48,28.00
2021,08,15,15,49,28.00
2021,08,15,15,50,27.90
2021,08,15,15,51,27.90
2021,08,15,15,52,27.90
2021,08,15,15,53,27.90
2021,08,15,15,54,27.90
2021,08,15,15,55,27.90
2021,08,15,15,56,27.90
2021,08,15,15,57,28.00
2021,08,15,15,58,28.10
2021,08,15,15,59,28.10
2021,08,15,16,00,28.00
2021,08,15,16,01,27.90
2021,08,15,16,02,27.80
2021,08,15,16,03,27.80
2021,08,15,16,04,27.80
2021,08,15,16,05,27.80
2021,08,15,16,06,27.80
2021,08,15,16,07,27.80
2021,08,15,16,08,27.80
2021,08,15,16,09,27.70
2021,08,15,16,10,27.70
2021,08,15,16,11,27.70
2021,08,15,16,12,27.70
2021,08,15,16,13,27.80
2021,08,15,16,14,27.80
2021,08,15,16,15,27.90
2021,08,15,16,16,27.90
2021,08,15,16,17,28.00
2021,08,15,16,18,28.10
2021,08,15,16,19,28.20
2021,08,15,16,20,28.20
2021,08,15,16,21,28.20
2021,08,15,16,22,28.10
2021,08,15,16,23,28.10
2021,08,15,16,24,28.10
2021,08,15,16,25,28.00
2021,08,15,16,26,28.00
2021,08,15,16,27,27.90
2021,08,15,16,28,27.80
2021,08,15,16,29,27.80
2021,08,15,16,30,27.70
2021,08,15,16,31,27.80
2021,08,15,16,32,27.80
2021,08,15,16,33,27.90
2021,08,15,16,34,28.00
2021,08,15,16,35,28.00
2021,08,15,16,36,28.00
2021,08,15,16,37,27.90
2021,08,15,16,38,27.80
2021,08,15,16,39,27.70
2021,08,15,16,40,27.70
2021,08,15,16,41,27.70
2021,08,15,16,42,27.60
2021,08,15,16,43,27.60
2021,08,15,16,44,27.60
2021,08,15,16,45,27.70
2021,08,15,16,46,27.70
2021,08,15,16,47,27.80
2021,08,15,16,48,27.80
2021,08,15,16,49,27.90
2021,08,15,16,50,27.90
2021,08,15,16,51,27.90
2021,08,15,16,52,27.90
2021,08,15,16,53,27.90
2021,08,15,16,54,27.90
2021,08,15,16,55,27.90
2021,08,15,16,56,27.90
2021,08,15,16,57,27.90
2021,08,15,16,58,27.80
2021,08,15,16,59,27.80
2021,08,15,17,00,27.70
2021,08,15,17,01,27.70
2021,08,15,17,02,27.70
2021,08,15,17,03,27.70
2021,08,15,17,04,27.60
2021,08,15,17,05,27.60
2021,08,15,17,06,27.60
2021,08,15,17,07,27.60
2021,08,15,17,08,27.40
2021,08,15,17,09,27.40
2021,08,15,17,10,27.30
2021,08,15,17,11,27.30
2021,08,15,17,12,27.30
2021,08,15,17,13,27.30
2021,08,15,17,14,27.30
2021,08,15,17,15,27.30
2021,08,15,17,16,27.30
2021,08,15,17,17,27.30
2021,08,15,17,18,27.30
2021,08,15,17,19,27.20